Powrót do katalogu

CZ-3C DEB

LostGTO
NORAD 42478·DEBRIS·🇨🇳 China

Wystrzelony Feb 24, 2012 z Xichang Satellite Launch Center

Loading…

TLE

NieaktualneSource: Space-Track

Epoka: Jun 12, 2024, 07:08 UTC

1 42478U 12008AN  24164.29735707 -.00000072  00000-0  00000+0 0  9992
2 42478  20.2787 114.2210 6806610  94.3229 339.6687  2.24186473 72974

Śledź CZ-3C DEB w czasie rzeczywistym z AllMySat

Download on the App Store